Regional Weather Roundup
Issued by NWS

Home | Current Version | Previous Version | Graphics & Text | Print | Product List | Glossary On
Versions: 1 2 3 4 5 6 7 8 9 10 11 12 13 14 15 16 17 18 19 20 21 22 23 24 25 26 27 28 29 30 31 32 33 34 35 36 37 38 39 40 41 42 43 44 45 46 47 48 49 50
000
ASUS43 KIND 280159
RWRIN

WEATHER ROUNDUP FOR INDIANA
NATIONAL WEATHER SERVICE INDIANAPOLIS IN
1000 PM EDT WED MAY 27 2015

NOTE: "FAIR" INDICATES FEW OR NO CLOUDS BELOW 12,000 FEET WITH NO
SIGNIFICANT WEATHER AND/OR OBSTRUCTIONS TO VISIBILITY.

* - STATION DOES NOT REPORT WEATHER SUCH AS PRECIPITATION OR FOG.

+ - STATION NOT QUALITY CONTROLLED BY THE NATIONAL WEATHER SERVICE.
    USE DATA WITH CAUTION...ESPECIALLY DEWPOINT AND RELATIVE
    HUMIDITY OBSERVATIONS.

INZ001>003-010>013-019-020-280300-
NORTHWEST INDIANA

CITY           SKY/WX    TMP DP  RH WIND       PRES   REMARKS
GARY /AIRPORT/ CLEAR     63  57  82 VRB5      30.10R
RENSSELAER +   CLEAR     68  55  64 N7        30.10R

$$

LMZ046-743>745-280300-
SOUTHERN LAKE MICHIGAN

STATION/POSITION TIME  TEMP    WIND        PRES    WAVE
                       AIR SEA DIR/SP/G            HT
                 (UTC) (F)     (DEG/KT/KT) (MB)    (FT)
BURNS HARBOR     0100   62      80/  5/  6 1019.3R
MICHIGAN CITY    0100   61      30/  4/  4   N/A
5NW MICH CITY    0100   56 53  110/  2/  2   N/A     1

$$

INZ004-005-014>016-021>024-280300-
NORTH CENTRAL INDIANA

CITY           SKY/WX    TMP DP  RH WIND       PRES   REMARKS
GOSHEN         CLEAR     62  56  80 NW7       30.08R
SOUTH BEND     CLEAR     61  56  83 NW5       30.11R

$$

INZ006>009-017-018-025>027-280300-
NORTHEAST INDIANA

CITY           SKY/WX    TMP DP  RH WIND       PRES   REMARKS
ANGOLA *+      CLEAR     66  57  72 NW8       30.08R
FORT WAYNE     PTCLDY    68  59  73 NW6       30.08R

$$

INZ028-029-035-036-043>045-051>053-280300-
WEST CENTRAL INDIANA

CITY           SKY/WX    TMP DP  RH WIND       PRES   REMARKS
CRAWFORDSVL +  CLEAR     66  55  67 W3        30.09R
GREENCASTLE +  MOCLDY    68  59  73 CALM      30.09S
LAFAYETTE      CLEAR     66  57  72 NW7       30.07R
TERRE HAUTE    PTCLDY    74  58  57 NW3       30.08R

$$

INZ030>032-037>040-046>048-054>057-064-065-280300-
CENTRAL INDIANA

CITY           SKY/WX    TMP DP  RH WIND       PRES   REMARKS
COLUMBUS       PTCLDY    72  63  73 SW12      30.10R
GREENWOOD *+   CLOUDY    72  61  68 CALM      30.09R
INDIANAPOLIS   MOCLDY    70  63  78 W6        30.07S
-EAGLE CREEK   MOCLDY    69  63  81 W5        30.07S
KOKOMO *+      CLEAR     68  63  83 W7        30.07R
MT COMFORT *+  MOCLDY    70  61  73 SW5       30.09R
SHELBYVILLE    CLOUDY    75  63  66 SW5       30.09R

$$

INZ033-034-041-042-049-050-058-059-280300-
EAST CENTRAL INDIANA

CITY           SKY/WX    TMP DP  RH WIND       PRES   REMARKS
MUNCIE         MOCLDY    71  63  75 SW6       30.08R

$$

INZ060-061-067>069-081>083-085>088-280300-
SOUTHWEST INDIANA

CITY           SKY/WX    TMP DP  RH WIND       PRES   REMARKS
EVANSVILLE     CLOUDY    71  64  78 S6        30.12R
HUNTINGBURG *+ CLOUDY    70  61  73 S9        30.12S

$$

INZ062-063-066-070>080-084-089>092-280300-
SOUTH CENTRAL AND SOUTHEAST INDIANA

CITY           SKY/WX    TMP DP  RH WIND       PRES   REMARKS
BLOOMINGTON    CLOUDY    72  64  76 S7        30.09S
MADISON *+     CLOUDY    68  61  77 S8        30.14S
SEYMOUR +      CLOUDY    72  64  78 S9        30.11R

$$




USA.gov is the U.S. government's official web portal to all federal, state and local government web resources and services.